Home   Weather   Constantine   Past weeks

Flag for Algeria Past Weather in Constantine, Algeria — Yesterday and Last 2 Weeks

Now
66 °F

Scattered clouds.


Feels Like: 66 °F
Forecast: 62 / 91 °F
Wind: No wind

Location: Constantine Airport

Current Time: Jul 26, 2017 at 7:50:19 am

Latest Report: Jul 26, 2017 at 7:00 am


Visibility: N/A

Pressure: 30.04 "Hg (28.15 "Hg at 557m altitude)

Humidity: 78%

Dew Point: 59 °F

Location of ConstantineLocation

Past Weather in Constantine — Graph

°F

Constantine Temperature Yesterday

Maximum temperature yesterday: 88 °F (at 2:30 pm)
Minimum temperature yesterday: 64 °F (at 5:00 am)
Average temperature yesterday: 75 °F

High & Low Weather Summary for the Past Weeks

 TemperatureHumidityPressure
High109 °F (Jul 11, 2:30 pm)94% (Jul 25, 5:00 am)30.18 "Hg (Jul 25, 5:00 am)
Low61 °F (Jul 17, 4:00 am)8% (Jul 11, 2:30 pm)29.89 "Hg (Jul 21, 2:30 am)
Average84 °F39%30.08 "Hg
* Reported Jul 11 6:00 am — Jul 26 6:30 am, Constantine. Weather by CustomWeather, © 2017

Note: Actual official high and low records may vary slightly from our data, if they occured in-between our weather recording intervals... More about our weather records

Advertising

Constantine Weather History for the Previous 24 Hours

Scroll right to see more
 ConditionsComfort  
Time TempWeatherWind HumidityBarometerVisibility
6:30 am
Wed, Jul 26
63 °FPassing clouds.No wind88%30.01 "HgN/A
6:00 am63 °FPassing clouds.2 mph83%30.01 "HgN/A
5:30 am63 °FPassing clouds.2 mph88%30.01 "HgN/A
5:00 am64 °FPassing clouds.2 mph83%30.01 "HgN/A
4:30 am64 °FPassing clouds.No wind83%30.01 "HgN/A
4:00 am64 °FPassing clouds.No wind83%30.01 "HgN/A
3:30 am64 °FPassing clouds.No wind83%30.01 "HgN/A
3:00 am64 °FPassing clouds.2 mph78%30.01 "HgN/A
2:30 am66 °FPassing clouds.2 mph78%30.01 "HgN/A
2:00 am66 °FPassing clouds.5 mph78%30.01 "HgN/A
1:30 am66 °FPassing clouds.2 mph78%30.01 "HgN/A
1:00 am66 °FPassing clouds.2 mph78%30.04 "HgN/A
12:30 am68 °FPassing clouds.5 mph73%30.04 "HgN/A
12:00 am68 °FPassing clouds.3 mph73%30.04 "HgN/A
11:30 pm
Tue, Jul 25
70 °FPassing clouds.7 mph73%30.04 "HgN/A
11:00 pm70 °FPassing clouds.8 mph73%30.04 "HgN/A
10:30 pm70 °FPassing clouds.7 mph73%30.04 "HgN/A
10:00 pm70 °FPassing clouds.7 mph73%30.01 "HgN/A
9:30 pm72 °FPassing clouds.12 mph69%30.01 "HgN/A
9:00 pm72 °FPassing clouds.12 mph69%30.01 "HgN/A
8:30 pm72 °FPassing clouds.14 mph69%30.01 "HgN/A
8:00 pm73 °FPassing clouds.12 mph69%29.98 "HgN/A
7:30 pm77 °FPassing clouds.10 mph61%29.98 "HgN/A
7:00 pm79 °FPassing clouds.14 mph58%29.95 "HgN/A
6:30 pm81 °FPassing clouds.12 mph54%29.95 "HgN/A
6:00 pm84 °FPassing clouds.14 mph45%29.95 "HgN/A
5:30 pm84 °FPassing clouds.14 mph45%29.95 "HgN/A
5:00 pm86 °FPassing clouds.12 mph43%29.98 "HgN/A
4:30 pm86 °FScattered clouds.13 mph46%29.98 "HgN/A
4:00 pm86 °FScattered clouds.13 mph43%29.98 "HgN/A
3:30 pm88 °FScattered clouds.10 mph38%29.98 "HgN/A
3:00 pm88 °FScattered clouds.10 mph35%29.98 "HgN/A
2:30 pm88 °FScattered clouds.13 mph38%29.98 "HgN/A
2:00 pm86 °FScattered clouds.9 mph40%30.01 "HgN/A
1:30 pm86 °FScattered clouds.6 mph40%30.01 "HgN/A
1:00 pm86 °FScattered clouds.10 mph43%30.01 "HgN/A
12:30 pm84 °FScattered clouds.13 mph43%30.04 "HgN/A
12:00 pm84 °FScattered clouds.6 mph43%30.04 "HgN/A
11:30 am82 °FScattered clouds.7 mph45%30.04 "HgN/A
11:00 am81 °FScattered clouds.5 mph51%30.04 "HgN/A
10:30 am79 °FScattered clouds.5 mph54%30.04 "Hg6 mi
10:00 am79 °FPassing clouds.2 mph54%30.04 "Hg6 mi
9:30 am75 °FPassing clouds.2 mph61%30.04 "Hg6 mi
9:00 am75 °FPassing clouds.3 mph61%30.04 "Hg6 mi
8:30 am73 °FPassing clouds.2 mph69%30.04 "Hg6 mi
8:00 am73 °FPassing clouds.1 mph74%30.04 "Hg6 mi
7:30 am70 °FPassing clouds.3 mph83%30.04 "Hg6 mi
7:00 am68 °FScattered clouds.3 mph88%30.04 "Hg6 mi
Weather by CustomWeather, © 2017

See weather overviewHow to use our weather pages